Location: Dürabuch
(48.2640°N, 11.2185°E)
Time: 03:43:50
(UTC+00:00)

Cosmos 2278 - Pass Details

Date: 23 May 2024
Orbit: 837 x 853 km, 71.1° (Epoch: 19 June)

Event Time Altitude Azimuth Distance (km) Brightness Sun altitude
Rises 00:33:40 0° 332° (NNW) 3,431 7.5 -18.7°
Reaches altitude 10° 00:36:08 10° 333° (NNW) 2,492 6.7 -18.6°
Maximum altitude 00:41:53 84° 62° (ENE) 865 3.7 -18.2°
Enters shadow 00:46:59 13° 151° (SSE) 2,246 5.6 -17.9°
